Date String (YYYY-MM-DD hh:mm:ss) UTC,Instrument flags,Ambient pressure (hPa),Sample flow (lpm),Bypass flow (lpm),Sample temperature (°C),Ambient temperature (°C),ASC tube jacket temperature (°C),LED temperature (°C),Box temperature (°C),Sample RH (%),Span deviation,Mass concentration (μg/m³),Mass concentration (μg/m³),Mass concentration (μg/m³)
DateTimeUTC,F1_M11,P_M11,Q1_M11,Q2_M11,T1_M11,T2_M11,T3_M11,T4_M11,T5_M11,U1_M11,ZSPAN_M11,X0_M11,X2_M11,X1_M11
2022-07-19 04:00:00,,0826.2,5.00,0.00,29.2,27.2,00.0,38.0,31.0,23.2,0000.0,0007.83,0003.86,0003.29
2022-07-19 04:01:00,,0826.2,5.00,0.00,29.2,27.4,00.0,38.0,31.1,23.2,0000.0,0007.88,0003.88,0003.28
2022-07-19 04:02:00,,0826.2,5.01,0.00,29.2,27.6,00.0,38.0,31.1,23.2,0000.0,0007.91,0003.88,0003.27
2022-07-19 04:03:00,,0826.2,5.01,0.00,29.3,27.8,00.0,38.0,31.2,23.1,0000.0,0007.90,0003.88,0003.27
2022-07-19 04:04:00,,0826.2,4.99,0.00,29.3,27.9,00.0,38.0,31.2,23.0,0000.0,0007.78,0003.86,0003.26
2022-07-19 04:05:00,,0826.2,4.99,0.00,29.3,28.1,00.0,38.0,31.3,23.0,0000.0,0007.79,0003.87,0003.25
2022-07-19 04:06:00,,0826.1,5.01,0.00,29.4,28.2,00.0,38.0,31.4,22.9,0000.0,0008.07,0003.90,0003.25
2022-07-19 04:07:00,,0826.2,5.00,0.00,29.4,28.4,00.0,38.1,31.4,22.8,0000.0,0008.10,0003.92,0003.24
2022-07-19 04:08:00,,0826.2,5.00,0.00,29.4,28.0,00.0,38.0,31.4,22.7,0000.0,0008.48,0003.92,0003.23
2022-07-19 04:09:00,,0826.2,5.00,0.00,29.4,27.2,00.0,38.0,31.3,22.7,0000.0,0008.55,0003.90,0003.23
2022-07-19 04:10:00,,0826.2,4.99,0.00,29.4,26.8,00.0,37.9,31.2,22.8,0000.0,0008.29,0003.90,0003.22
2022-07-19 04:11:00,,0826.2,5.00,0.00,29.3,26.9,00.0,38.0,31.1,22.9,0000.0,0008.06,0003.90,0003.22
2022-07-19 04:12:00,,0826.2,5.00,0.00,29.3,27.0,00.0,38.0,31.0,22.6,0000.0,0008.07,0003.86,0003.22
2022-07-19 04:13:00,,0826.1,5.00,0.00,29.2,27.2,00.0,38.0,31.0,22.8,0000.0,0008.07,0003.86,0003.22
2022-07-19 04:14:00,,0826.2,5.00,0.00,29.2,27.4,00.0,38.0,31.1,22.9,0000.0,0007.98,0003.85,0003.21
2022-07-19 04:15:00,,0826.2,5.00,0.00,29.2,27.6,00.0,38.0,31.1,22.9,0000.0,0007.98,0003.84,0003.20
2022-07-19 04:16:00,,0826.2,5.00,0.00,29.3,27.8,00.0,38.0,31.2,22.8,0000.0,0008.09,0003.85,0003.19
2022-07-19 04:17:00,,0826.2,5.00,0.00,29.3,28.0,00.0,38.0,31.2,22.8,0000.0,0008.03,0003.83,0003.19
2022-07-19 04:18:00,,0826.1,5.00,0.00,29.3,28.1,00.0,38.0,31.3,22.7,0000.0,0007.96,0003.79,0003.18
2022-07-19 04:19:00,,0826.2,4.99,0.00,29.4,28.3,00.0,38.0,31.3,22.6,0000.0,0007.69,0003.75,0003.17
2022-07-19 04:20:00,,0826.2,5.01,0.00,29.4,28.4,00.0,38.1,31.4,22.2,0000.0,0007.73,0003.74,0003.17
2022-07-19 04:21:00,,0826.2,4.99,0.00,29.4,28.3,00.0,38.0,31.4,21.9,0000.0,0007.76,0003.75,0003.17
2022-07-19 04:22:00,,0826.2,5.01,0.00,29.4,27.5,00.0,38.0,31.4,22.2,0000.0,0007.79,0003.74,0003.16
2022-07-19 04:23:00,,0826.2,4.99,0.00,29.4,26.9,00.0,37.9,31.2,22.3,0000.0,0007.84,0003.76,0003.14
2022-07-19 04:24:00,,0826.2,5.01,0.00,29.4,26.8,00.0,37.9,31.1,22.2,0000.0,0007.78,0003.75,0003.14
2022-07-19 04:25:00,,0826.2,5.00,0.00,29.3,26.9,00.0,38.0,31.0,22.3,0000.0,0007.80,0003.73,0003.13
2022-07-19 04:26:00,,0826.2,4.99,0.00,29.2,27.1,00.0,38.0,31.0,21.6,0000.0,0007.69,0003.71,0003.12
2022-07-19 04:27:00,,0826.2,4.99,0.00,29.2,27.3,00.0,38.0,31.1,21.8,0000.0,0007.55,0003.66,0003.11
2022-07-19 04:28:00,,0826.2,5.00,0.00,29.2,27.5,00.0,38.0,31.1,21.8,0000.0,0007.36,0003.65,0003.09
2022-07-19 04:29:00,,0826.1,4.99,0.00,29.3,27.7,00.0,38.0,31.2,21.3,0000.0,0007.16,0003.63,0003.07
2022-07-19 04:30:00,,0826.2,5.01,0.00,29.3,27.9,00.0,38.0,31.2,22.0,0000.0,0006.82,0003.64,0003.07
2022-07-19 04:31:00,,0826.2,5.01,0.00,29.3,28.0,00.0,38.0,31.3,21.8,0000.0,0006.56,0003.63,0003.05
2022-07-19 04:32:00,,0826.2,4.99,0.00,29.3,28.2,00.0,38.0,31.3,21.9,0000.0,0006.42,0003.62,0003.05
2022-07-19 04:33:00,,0826.2,5.00,0.00,29.4,28.3,00.0,38.1,31.4,21.8,0000.0,0006.38,0003.62,0003.03
2022-07-19 04:34:00,,0826.2,4.99,0.00,29.4,28.4,00.0,38.1,31.4,21.7,0000.0,0005.96,0003.57,0003.03
2022-07-19 04:35:00,,0826.2,5.00,0.00,29.5,27.7,00.0,38.0,31.4,21.8,0000.0,0006.58,0003.57,0003.02
2022-07-19 04:36:00,,0826.3,5.01,0.00,29.4,27.1,00.0,38.0,31.3,21.9,0000.0,0006.74,0003.58,0003.02
2022-07-19 04:37:00,,0826.3,4.99,0.00,29.4,26.9,00.0,38.0,31.2,22.0,0000.0,0006.78,0003.59,0003.02
2022-07-19 04:38:00,,0826.3,5.01,0.00,29.3,26.9,00.0,38.0,31.1,22.1,0000.0,0006.79,0003.59,0003.01
2022-07-19 04:39:00,,0826.4,4.99,0.00,29.3,27.1,00.0,38.0,31.0,22.2,0000.0,0006.61,0003.56,0003.00
2022-07-19 04:40:00,,0826.4,5.00,0.00,29.3,27.3,00.0,38.0,31.1,22.3,0000.0,0006.57,0003.57,0003.00
2022-07-19 04:41:00,,0826.4,4.99,0.00,29.3,27.5,00.0,38.0,31.1,22.3,0000.0,0006.34,0003.53,0003.00
2022-07-19 04:42:00,,0826.5,5.01,0.00,29.3,27.7,00.0,38.0,31.2,22.3,0000.0,0006.58,0003.49,0002.98
2022-07-19 04:43:00,,0826.5,5.01,0.00,29.3,27.9,00.0,38.0,31.2,22.1,0000.0,0006.82,0003.43,0002.96
2022-07-19 04:44:00,,0826.5,4.99,0.00,29.3,28.0,00.0,38.0,31.3,22.1,0000.0,0006.62,0003.38,0002.94
2022-07-19 04:45:00,,0826.5,5.01,0.00,29.4,28.2,00.0,38.0,31.3,22.0,0000.0,0006.85,0003.41,0002.94
2022-07-19 04:46:00,,0826.5,4.99,0.00,29.4,28.3,00.0,38.1,31.4,22.0,0000.0,0006.45,0003.44,0002.92
2022-07-19 04:47:00,,0826.5,5.00,0.00,29.4,28.4,00.0,38.1,31.4,22.0,0000.0,0006.24,0003.42,0002.90
2022-07-19 04:48:00,,0826.4,5.00,0.00,29.5,28.1,00.0,38.1,31.4,22.0,0000.0,0006.31,0003.41,0002.89
2022-07-19 04:49:00,,0826.5,5.01,0.00,29.4,27.2,00.0,38.0,31.3,22.0,0000.0,0006.64,0003.39,0002.88
2022-07-19 04:50:00,,0826.5,4.99,0.00,29.4,26.8,00.0,38.0,31.2,22.0,0000.0,0006.55,0003.36,0002.86
2022-07-19 04:51:00,,0826.5,5.01,0.00,29.3,26.9,00.0,38.0,31.1,22.1,0000.0,0007.07,0003.35,0002.85
2022-07-19 04:52:00,,0826.5,5.00,0.00,29.3,27.0,00.0,38.0,31.0,22.1,0000.0,0007.49,0003.38,0002.85
2022-07-19 04:53:00,,0826.4,4.99,0.00,29.2,27.2,00.0,38.0,31.0,22.2,0000.0,0007.64,0003.42,0002.84
2022-07-19 04:54:00,,0826.5,5.00,0.00,29.2,27.4,00.0,38.0,31.1,22.3,0000.0,0007.40,0003.44,0002.84
2022-07-19 04:55:00,,0826.5,5.00,0.00,29.3,27.6,00.0,38.0,31.1,22.2,0000.0,0007.55,0003.45,0002.84
2022-07-19 04:56:00,,0826.5,4.99,0.00,29.3,27.8,00.0,38.0,31.2,22.3,0000.0,0007.50,0003.41,0002.84
2022-07-19 04:57:00,,0826.5,5.00,0.00,29.3,28.0,00.0,38.0,31.2,22.3,0000.0,0007.45,0003.41,0002.84
2022-07-19 04:58:00,,0826.5,5.00,0.00,29.3,28.1,00.0,38.0,31.3,22.3,0000.0,0007.47,0003.42,0002.85
2022-07-19 04:59:00,,0826.5,5.00,0.00,29.4,28.2,00.0,38.0,31.4,22.3,0000.0,0007.53,0003.44,0002.85
